Location: La Barre-Theberge
(47.4886°N, 1.3514°W)
Time: 01:40:15
(UTC+00:00)

Daily predictions for brighter satellites

Satellite Brightness Start Highest point End
(mag) Time Altitude Azimuth Time Altitude Azimuth Time Altitude Azimuth
SL-16 R/B 3.6 01:19:18 40° NE 01:19:18 40° NE 01:24:40 10° N
Cosmos 2369 Rocket 4.3 01:21:55 18° ENE 01:21:55 18° ENE 01:24:12 10° NE
ADEOS II 4.2 01:17:59 10° NE 01:20:29 21° ENE 01:20:29 21° ENE
Lacrosse 4 Rocket 4.4 01:46:01 13° N 01:46:01 13° N 01:46:42 10° N
Cosmos 2278 Rocket 3.7 01:47:12 30° NNW 01:47:12 30° NNW 01:50:37 10° NNE
Cosmos 1943 Rocket 3.4 01:48:36 39° NNE 01:48:36 39° NNE 01:52:04 10° NNE
CZ-2D R/B 3.3 01:53:43 10° NNE 01:56:59 39° NNE 01:56:59 39° NNE
Resurs 1-4 Rocket 3.3 01:55:50 10° NNE 01:59:10 40° NNE 01:59:10 40° NNE
Nadezhda 1 Rocket 4.4 02:00:09 10° N 02:05:11 59° NNE 02:05:11 59° NNE
IDEFIX/ARIANE 42P 3.6 02:08:24 10° NNE 02:11:53 43° NNE 02:11:53 43° NNE
SeaSat 1 3.6 02:18:13 10° NE 02:21:50 37° ENE 02:21:50 37° ENE
Cosmos 2297 4.2 02:24:19 57° NNE 02:24:19 57° NNE 02:28:53 10° NNE
ATLAS CENTAUR R/B 3.3 02:27:11 30° NE 02:27:11 30° NE 02:29:29 10° NE
Lacrosse 5 2.8 02:29:14 46° NE 02:29:14 46° NE 02:32:48 10° NE
MSX 4.0 02:22:00 10° NNE 02:27:03 68° NE 02:27:03 68° NE
Cosmos 2285 Rocket 4.0 02:31:11 77° E 02:31:11 77° E 02:37:15 10° NNE
ATLAS 5 CENTAUR R/B 3.6 02:33:43 22° NNE 02:33:43 22° NNE 02:35:38 10° NNE
Cosmos 1745 Rocket 4.0 02:45:15 63° NW 02:45:15 63° NW 02:50:47 10° N
Cosmos 1709 Rocket 3.8 02:55:58 80° SW 02:56:16 84° W 03:02:28 10° N
Cosmos 2181 Rocket 4.3 02:50:26 10° N 02:56:52 68° E 03:00:36 27° SSE
Okean 3 Rocket 4.2 02:54:35 10° N 02:58:24 53° NE 02:58:24 53° NE
ADEOS II 2.6 02:57:06 10° N 03:01:25 47° NW 03:01:25 47° NW
SL-16 R/B 3.5 03:04:22 33° WNW 03:04:22 33° WNW 03:08:20 10° NNW
Cosmos 2369 Rocket 2.2 03:03:42 67° NW 03:03:42 67° NW 03:09:12 10° NNE
Meteor 2-20 Rocket 4.4 02:58:00 10° N 03:04:05 78° E 03:06:36 38° SSE
Thor Agena Rocket 4.1 02:59:17 10° N 03:03:16 44° NW 03:03:16 44° NW
Cosmos 921 Rocket 3.8 03:05:51 48° N 03:05:51 48° N 03:09:16 10° NNE
Helios 1A 4.3 03:05:41 20° SE 03:08:03 37° ENE 03:11:53 10° N
NOSS 3-4 (A) 4.5 03:04:53 10° NW 03:11:31 54° NE 03:19:04 10° ESE
Cosmos 1833 4.1 03:07:42 10° NNW 03:13:25 73° WSW 03:13:41 71° SW
CZ-2C R/B 3.4 03:09:34 10° NNE 03:14:09 42° E 03:16:12 28° SSE
Cosmos 1680 Rocket 4.4 03:16:16 31° SSE 03:18:13 45° ESE 03:23:14 10° NNE
BREEZE-M DEB (TANK) 3.9 03:17:33 47° SW 03:19:43 77° SSE 03:23:17 10° ENE
NOSS 3-3 (A) 3.7 03:18:44 62° SSW 03:19:47 87° SE 03:26:19 10° NE
NOSS 3-3 (C) 3.7 03:18:50 62° SSW 03:19:54 86° SE 03:26:26 10° NE
Meteor 1-20 Rocket 4.4 03:15:35 10° NNW 03:20:28 52° WNW 03:20:28 52° WNW
Cosmos 1656 Rocket 3.9 03:20:51 50° WNW 03:21:03 50° WNW 03:26:26 10° NNE
Cosmos 1842 Rocket 3.9 03:21:11 55° SE 03:21:46 62° E 03:26:05 10° NNE
FENGYUN 3A 3.5 03:16:45 10° NNE 03:22:13 83° WNW 03:23:11 62° SSW
ERS-2 4.1 03:21:05 10° N 03:22:22 20° NNW 03:22:22 20° NNW
CZ-2C R/B 2.8 03:19:30 14° SSE 03:24:27 80° ENE 03:30:00 10° NNW
Cosmos 1538 Rocket 4.1 03:24:43 57° WNW 03:25:01 58° WNW 03:30:20 10° NNE
TIMED 4.4 03:21:21 10° NNW 03:25:44 84° ENE 03:26:00 78° SE
Meteor 2-2 Rocket 4.4 03:25:33 51° W 03:25:59 52° WNW 03:31:49 10° N
Cosmos 1943 Rocket 3.9 03:30:06 18° NW 03:31:03 18° NW 03:34:56 10° N
IRS-1D 3.3 03:26:17 10° NNE 03:31:15 82° WNW 03:32:11 59° SSW
Timation 1 Rocket 4.2 03:27:04 10° NNW 03:33:08 86° WSW 03:39:08 10° SSE
Cosmos 1812 3.7 03:35:02 36° NNW 03:35:02 36° NNW 03:37:33 10° N
ALOS 2.1 03:30:30 10° N 03:35:10 77° WNW 03:35:46 65° SW
ARGOS Delta rocket 3.6 03:36:53 64° W 03:36:53 64° W 03:41:03 10° NNW
Cosmos 2056 Rocket 4.0 03:32:24 10° NNW 03:37:33 61° ENE 03:42:45 10° SE
CZ-2D R/B 3.8 03:34:57 10° NNW 03:38:19 18° NW 03:38:19 18° NW
Resurs 1-4 Rocket 3.9 03:36:57 10° NNW 03:40:15 17° NW 03:40:15 17° NW
Cosmos 1500 Rocket 4.1 03:36:40 10° N 03:40:56 57° ENE 03:45:11 10° SSE
Cosmos 2074 Rocket 4.0 03:37:02 22° S 03:41:20 81° E 03:47:40 10° N
Cosmos 1867 3.5 03:38:45 10° NW 03:44:08 59° WSW 03:49:28 10° SSE
Cosmos 1624 Rocket 4.2 03:44:30 10° NNW 03:49:52 76° ENE 03:55:09 10° SSE
USA 276 3.3 03:50:59 33° ESE 03:50:59 33° ESE 03:53:04 10° E
Cosmos 1420 Rocket 4.1 03:47:06 10° NNW 03:52:19 76° ENE 03:57:30 10° SSE
IDEFIX/ARIANE 42P 4.2 03:49:10 10° NNW 03:52:34 18° WNW 03:52:41 18° WNW
Cosmos 2221 3.2 03:56:24 37° WNW 03:56:24 37° WNW 04:00:23 10° N
Meteor 1-14 Rocket 4.2 03:51:50 10° N 03:57:24 82° ENE 04:02:59 10° SSE
CBERS-1 3.9 03:53:49 10° NNE 03:58:59 87° WNW 04:02:10 24° SSW
SeaSat 1 3.3 03:55:55 10° NNE 04:00:19 34° NW 04:01:35 29° W
Orbus 7S? 4.2 03:54:48 10° NW 04:02:46 69° NNE 04:06:23 10° ESE
ATLAS CENTAUR R/B 3.0 04:02:53 22° WNW 04:03:54 24° NW 04:07:27 10° NNE
Cosmos 1461 3.7 04:01:56 24° S 04:04:18 52° ESE 04:08:44 10° NE
USA 281 4.2 03:58:07 10° SE 04:04:23 49° NE 04:10:39 10° NNW
Cosmos 1743 4.1 04:04:14 10° N 04:07:46 39° ENE 04:11:17 10° SE
Cosmos 44 4.2 04:08:15 26° WNW 04:09:35 31° NW 04:13:47 10° NNE
Lacrosse 5 3.1 04:08:25 19° WNW 04:11:16 33° NNW 04:15:52 10° NE
Cosmos 1295 Rocket 4.5 04:05:32 10° S 04:11:52 83° W 04:18:12 10° N
PAYLOAD A 4.1 04:08:23 10° N 04:13:43 64° WNW 04:17:11 21° SSW
Cosmos 1782 4.1 04:15:00 24° WNW 04:15:00 24° WNW 04:17:57 10° NNW
SL-27 R/B 2.0 04:13:00 10° NNW 04:16:10 66° WSW 04:19:19 10° S
GEOS 3 Rocket 3.6 04:11:18 10° SSE 04:16:26 62° SW 04:21:43 10° NW
ATLAS 5 CENTAUR R/B 3.8 04:15:42 10° NW 04:17:31 12° NNW 04:19:26 10° NNE
Cosmos 1151 Rocket 4.0 04:14:58 10° SSE 04:19:06 47° E 04:23:16 10° NNE
NOSS 2-1 (E) 4.1 04:16:50 10° NW 04:21:05 71° NE 04:27:04 10° SE
Envisat 2.9 04:20:27 10° NNE 04:25:33 85° WNW 04:30:38 10° SSW
IRS-1C 4.2 04:24:19 10° NNE 04:29:41 85° ESE 04:35:01 10° SSW
DELTA 2 R/B (1) 4.4 04:27:19 21° SW 04:30:21 37° S 04:35:29 10° ESE
Cosmos 1408 Rocket 4.4 04:27:02 10° NNW 04:30:54 30° W 04:32:58 20° SW
YAOGAN 6 2.6 04:29:43 10° N 04:33:11 54° WNW 04:35:38 18° SSW
Cosmos 1339 Rocket 4.5 04:29:12 10° N 04:35:19 86° E 04:41:28 10° S
Cosmos 1666 Rocket 4.2 04:31:09 10° N 04:35:26 58° ENE 04:39:42 10° SSE
METEOR-M 4.5 04:30:27 10° N 04:35:32 46° WNW 04:39:46 14° SW
SL-19 R/B 4.0 04:30:29 10° NNE 04:35:44 72° WNW 04:40:54 10° SSW
Sich 1 3.0 04:32:01 10° NNW 04:36:23 62° W 04:40:43 10° S
COSMOS 2455 3.6 04:31:04 10° SSW 04:36:54 54° ESE 04:42:46 10° NE
Cosmos 2184 Rocket 4.4 04:34:22 14° SW 04:39:14 41° WNW 04:45:03 10° N
Cosmos 1437 Rocket 3.7 04:35:34 10° N 04:39:20 49° ENE 04:43:01 10° SSE
Cosmos 405 Rocket 3.5 04:38:45 10° S 04:42:15 51° E 04:45:48 10° NNE
Helios 1A 4.1 04:42:07 18° WSW 04:43:34 22° W 04:46:49 10° NW
ATLAS 2AS CENTAUR R/B 4.0 04:37:25 10° NW 04:44:07 42° NE 04:50:26 10° ESE
Cosmos 1743 Rocket 4.1 04:41:26 10° NNW 04:45:32 37° W 04:49:38 10° SSW
Cosmos 1536 2.8 04:42:53 10° N 04:46:52 86° E 04:50:50 10° S
SAR-Lupe-2 3.7 04:44:07 10° N 04:47:38 54° WNW 04:51:07 10° SSW
Cosmos 2369 Rocket 4.0 04:45:29 10° WNW 04:48:44 16° NW 04:52:09 10° N
Cosmos 1633 Rocket 3.5 04:45:03 10° N 04:49:29 67° E 04:53:51 10° SSE
ERS-1 4.4 04:44:37 10° NNE 04:49:37 79° WNW 04:54:34 10° SSW
CZ-2C R/B 3.4 04:48:09 10° N 04:52:09 27° WNW 04:55:34 13° WSW
CZ-2C R/B 3.4 04:47:59 10° N 04:52:25 40° WNW 04:56:56 10° SW
Cosmos 2297 Rocket 2.2 04:47:39 10° NNW 04:53:22 88° WSW 04:59:02 10° SSE
H-2A R/B 2.5 04:53:10 10° N 04:56:48 79° WNW 05:00:22 10° SSW
CZ-2D R/B 3.4 04:53:38 10° N 04:57:55 74° WNW 05:02:03 10° SSW
NOAA 11 4.2 04:52:45 10° N 04:58:11 73° WNW 05:03:36 10° SSW
Cosmos 1484 Rocket 3.2 04:54:55 10° N 04:58:27 40° WNW 05:02:00 10° SW
Cosmos 1680 Rocket 4.5 04:56:36 13° WSW 05:00:30 30° NW 05:05:08 10° N
Meteor 1-11 Rocket 3.7 04:55:35 10° NNW 05:01:08 67° W 05:06:34 10° S
NOSS 3-4 (A) 4.2 04:55:50 10° NW 05:02:30 46° WSW 05:10:00 10° S
NOSS 3-4 (C) 4.2 04:55:56 10° NW 05:02:37 47° WSW 05:10:07 10° S
CZ-2C R/B 4.1 05:01:48 10° SW 05:05:20 17° W 05:08:51 10° NW
IRS-P3 4.3 05:02:48 10° N 05:08:01 55° WNW 05:13:11 10° SW
Genesis I 4.2 05:05:20 12° WSW 05:08:34 32° NW 05:12:07 10° NNE
Cosmos 2219 3.9 05:02:58 10° NNW 05:08:35 59° ENE 05:14:12 10° SE
Cosmos 2227 Rocket 2.4 05:04:11 10° NNW 05:09:52 79° ENE 05:15:31 10° SSE
ARIANE 5 R/B 2.8 05:05:32 10° N 05:10:30 49° WNW 05:15:30 10° SW
ALOS 4.3 05:10:08 10° NW 05:11:41 12° NW 05:13:14 10° WNW
GP-B 3.4 05:07:28 10° N 05:11:43 46° W 05:15:57 10° SSW
NOSS 2-1 (C) 4.2 05:08:18 10° NW 05:12:33 47° SW 05:18:28 10° SSE
CZ-4C R/B 4.2 05:11:14 10° SE 05:14:32 47° ENE 05:17:55 10° N
NOSS 2-1 (D) 4.3 05:13:21 10° NW 05:17:35 43° SW 05:23:24 10° SSE
H-2A R/B 3.2 05:14:20 10° NNE 05:19:05 47° E 05:23:47 10° S
Cosmos 1470 Rocket 3.6 05:18:40 10° N 05:23:06 89° SW 05:27:28 10° S
Cosmos 2218 Rocket 4.1 05:16:58 10° SSW 05:23:18 75° W 05:29:44 10° N
COSMO-SKYMED 1 2.5 05:20:01 10° S 05:24:20 76° WSW 05:28:43 10° NNW
Spot 4 Rocket 4.0 05:19:23 10° NNE 05:24:32 78° WNW 05:29:41 10° SSW
Helios 1B rocket 2.8 05:21:27 10° N 05:25:15 42° WNW 05:29:01 10° SW
